N0WKC Weather Reports


Display with metric or nautical units.
time (UTC)temp
F
wind
direction
speed
MPH
gust
MPH
rain 1hr
in
rain 24hr
in
rain mn
in
humidity
%
barometer
mb
20260510153103 64 98 3.0 0.0 0.00 0.00 0.00 58 1017.5
20260510151555 64 21 4.0 0.0 0.00 0.00 0.00 58 1017.6
20260510150113 63 65 6.0 0.0 0.00 0.00 0.00 59 1017.8
20260510143050 63 118 4.0 0.0 0.00 0.00 0.00 62 1017.4
20260510141550 63 34 4.0 0.0 0.00 0.00 0.00 63 1017.0
20260510140047 62 5 5.0 0.0 0.00 0.00 0.00 66 1016.9
20260510133042 62 360 5.0 0.0 0.00 0.00 0.00 71 1016.5
20260510131541 61 32 4.0 0.0 0.00 0.00 0.00 74 1016.3
20260510130039 60 39 4.0 0.0 0.00 0.00 0.00 75 1015.9
20260510123037 59 98 3.0 0.0 0.00 0.00 0.00 78 1015.8
20260510121535 58 85 3.0 0.0 0.00 0.00 0.00 81 1015.4
20260510120035 57 96 2.0 0.0 0.00 0.00 0.00 81 1015.4
20260510113032 57 78 2.0 0.0 0.00 0.00 0.00 80 1014.8
20260510111530 57 346 2.0 0.0 0.00 0.00 0.00 81 1014.6
20260510110029 58 101 1.0 0.0 0.00 0.00 0.00 81 1014.3
20260510103027 59 86 2.0 0.0 0.00 0.00 0.00 77 1014.2
20260510101525 59 67 2.0 0.0 0.00 0.00 0.00 75 1014.0
20260510100022 60 63 1.0 0.0 0.00 0.00 0.00 71 1013.6
20260510093021 59 87 1.0 0.0 0.00 0.00 0.00 70 1013.3
20260510091526 59 360 0.0 0.0 0.00 0.00 0.00 70 1013.4
20260510090022 60 279 0.0 0.0 0.00 0.00 0.00 71 1013.2
20260510083020 59 279 0.0 0.0 0.00 0.00 0.00 70 1012.8
20260510081531 59 279 0.0 0.0 0.00 0.00 0.00 73 1012.9
20260510080019 58 280 0.0 0.0 0.00 0.00 0.00 70 1013.0
20260510073022 57 276 0.0 0.0 0.00 0.00 0.00 74 1012.7
20260510071516 57 278 1.0 0.0 0.00 0.00 0.00 73 1012.8
20260510070014 58 161 1.0 0.0 0.00 0.00 0.00 72 1012.6
20260510063011 60 236 1.0 0.0 0.00 0.00 0.00 68 1012.6
20260510061510 61 238 0.0 0.0 0.00 0.00 0.00 68 1012.5
20260510060007 61 237 2.0 0.0 0.00 0.00 0.00 65 1012.7
20260510053002 61 294 3.0 0.0 0.00 0.00 0.00 65 1012.7
20260510051559 62 221 0.0 0.0 0.00 0.00 0.00 64 1012.1
20260510050057 62 360 1.0 0.0 0.00 0.00 0.00 63 1012.1
20260510043110 62 210 1.0 0.0 0.00 0.00 0.00 62 1011.9
20260510041554 62 207 0.0 0.0 0.00 0.00 0.00 62 1011.5
20260510040104 63 192 0.0 0.0 0.00 0.00 0.00 61 1011.4
20260510033057 63 279 0.0 0.0 0.00 0.00 0.00 65 1011.5
20260510031603 63 281 0.0 0.0 0.00 0.00 0.00 61 1011.4
20260510030058 64 281 0.0 0.0 0.00 0.00 0.00 61 1011.4
20260510023054 66 360 1.0 0.0 0.00 0.00 0.00 54 1010.5
20260510021555 66 278 1.0 0.0 0.00 0.00 0.00 54 1010.5
20260510020054 67 282 0.0 0.0 0.00 0.00 0.00 55 1010.1
20260510013101 68 280 0.0 0.0 0.00 0.00 0.00 52 1009.6
20260510011548 70 282 0.0 0.0 0.00 0.00 0.00 52 1009.4
20260510010048 71 282 1.0 0.0 0.00 0.00 0.00 49 1009.2
20260510003050 73 360 0.0 0.0 0.00 0.00 0.00 45 1009.0
20260510001548 74 283 0.0 0.0 0.00 0.00 0.00 44 1009.0
20260510000047 75 279 0.0 0.0 0.00 0.00 0.00 41 1009.1
20260509233048 76 360 1.0 0.0 0.00 0.00 0.00 37 1009.0
20260509231556 77 173 1.0 0.0 0.00 0.00 0.00 37 1009.1
20260509230047 77 142 2.0 0.0 0.00 0.00 0.00 37 1009.0
20260509223047 77 280 2.0 0.0 0.00 0.00 0.00 35 1009.1
20260509221546 78 13 2.0 0.0 0.00 0.00 0.00 36 1009.0
20260509220052 78 349 1.0 0.0 0.00 0.00 0.00 38 1009.0
20260509213044 78 261 3.0 0.0 0.00 0.00 0.00 35 1008.9
20260509211548 78 291 2.0 0.0 0.00 0.00 0.00 34 1009.1
20260509210047 79 338 5.0 0.0 0.00 0.00 0.00 37 1009.3
20260509203042 80 9 5.0 0.0 0.00 0.00 0.00 34 1009.4
20260509201542 81 5 3.0 0.0 0.00 0.00 0.00 32 1009.7
20260509200044 83 190 3.0 0.0 0.00 0.00 0.00 35 1009.8
20260509193041 86 348 4.0 0.0 0.00 0.00 0.00 30 1010.0
20260509191542 86 333 3.0 0.0 0.00 0.00 0.00 33 1010.0
20260509190042 85 347 3.0 0.0 0.00 0.00 0.00 36 1010.0
20260509183035 84 298 5.0 0.0 0.00 0.00 0.00 32 1009.9
20260509181536 85 315 2.0 0.0 0.00 0.00 0.00 35 1009.9
20260509180032 84 232 4.0 0.0 0.00 0.00 0.00 34 1010.1
20260509173031 84 125 5.0 0.0 0.00 0.00 0.00 33 1010.4
20260509171527 83 360 5.0 0.0 0.00 0.00 0.00 39 1010.6
20260509170024 81 236 4.0 0.0 0.00 0.00 0.00 40 1010.5
20260509163032 81 318 5.0 0.0 0.00 0.00 0.00 40 1010.6
20260509161524 81 258 3.0 0.0 0.00 0.00 0.00 41 1010.5
20260509160019 79 360 2.0 0.0 0.00 0.00 0.00 46 1010.4